Agadir Al Massira, Morocco

12:25 AM WEST on April 25, 2017 (GMT +0100)
Al-Massira

Weather History for GMAD - April, 2013

Change the Weather History Date:

Wednesday, April 3, 2013

  Actual Average Record
Temperature  
Mean Temperature 60 °F -  
Max Temperature 71 °F - - ()
Min Temperature 50 °F - - ()
Degree Days  
Heating Degree Days 4    
Growing Degree Days 10 (Base 50)    
Moisture  
Dew Point 51 °F    
Average Humidity 72    
Maximum Humidity 88    
Minimum Humidity 42    
Precipitation  
Precipitation 0.08 in - - ()
Sea Level Pressure  
Sea Level Pressure 29.86 in    
Wind  
Wind Speed 6 mph ()    
Max Wind Speed 16 mph    
Max Gust Speed -    
Visibility 5.5 miles    
Events Rain , Thunderstorm    
T = Trace of Precipitation, MM = Missing Value Source: Averaged Metar Reports

Daily Weather History Graph

Daily Weather History Graph

Search for Another Location

Airport or City:

Trip Planner

Search our weather history database for the weather conditions in past years. The results will help you decide how hot, cold, wet, or windy it might be!

Date:

Astronomy

Apr. 03, 2013 Rise Set
Actual Time 6:24 AM WET 6:57 PM WET
Civil Twilight 6:00 AM WET 7:22 PM WET
Nautical Twilight 5:31 AM WET 7:50 PM WET
Astronomical Twilight 5:02 AM WET 8:19 PM WET
Moon 1:26 AM WET (4/3) 12:21 PM WET (4/3)
Length of Visible Light 13h 21m
Length of Day
12h 33m
Waning Gibbous, 46% of the Moon is Illuminated
Apr 3
Waning Gibbous
Apr 10
New
Apr 18
First Quarter
Apr 25
Full
May 2
Last Quarter

Hourly Weather History & Observations

Time (WET) Temp. Dew Point Humidity Pressure Visibility Wind Dir Wind Speed Gust Speed Precip Events Conditions
12:00 AM 53 °F 48 °F 76% 29.94 in - SE 5.8 mph - -  
1:00 AM 51.8 °F 46.4 °F 82% 29.92 in 6.2 mi NNE 1.2 mph - N/A   Unknown
2:00 AM 51.8 °F 48.2 °F 88% 29.89 in - East 5.8 mph - N/A   Clear
3:00 AM 53.6 °F 48.2 °F 82% 29.89 in - Calm Calm - N/A   Clear
4:00 AM 51.8 °F 48.2 °F 88% 29.86 in 6.2 mi ENE 5.8 mph - N/A   Unknown
5:00 AM 51.8 °F 48.2 °F 88% 29.86 in 6.2 mi East 8.1 mph - N/A   Unknown
6:00 AM 53 °F 49 °F 80% 29.86 in 6 mi East 4.6 mph - -   Mostly Cloudy
6:00 AM 51.8 °F 48.2 °F 88% 29.86 in - East 4.6 mph - N/A   Clear
7:00 AM 55.4 °F 50.0 °F 82% 29.86 in - ENE 12.7 mph - N/A   Clear
8:00 AM 57.2 °F 50.0 °F 77% 29.86 in 6.2 mi ENE 5.8 mph - N/A   Mostly Cloudy
9:00 AM 56 °F 53 °F 84% 29.90 in 3 mi NE 4.6 mph - - Rain Light Rain
9:00 AM 55.4 °F 51.8 °F 88% 29.89 in 3.1 mi NNE 4.6 mph - N/A Rain Light Rain
10:00 AM 57.2 °F 53.6 °F 88% 29.89 in 5.0 mi NE 5.8 mph - N/A   Mostly Cloudy
11:00 AM 62.6 °F 53.6 °F 72% 29.89 in 6.2 mi Calm Calm - N/A   Mostly Cloudy
12:00 PM 66 °F 53 °F 53% 29.89 in 6 mi WSW 5.8 mph - -   Partly Cloudy
1:00 PM 69.8 °F 53.6 °F 56% 29.86 in 6.2 mi West 10.4 mph - N/A   Mostly Cloudy
2:00 PM 71.6 °F 50.0 °F 46% 29.86 in 6.2 mi WSW 11.5 mph - N/A   Scattered Clouds
3:00 PM 68 °F 50 °F 42% 29.84 in 6 mi West 13.8 mph - -   Mostly Cloudy
3:00 PM 68.0 °F 50.0 °F 52% 29.83 in 6.2 mi West 13.8 mph - N/A   Scattered Clouds
4:00 PM 68.0 °F 50.0 °F 52% 29.83 in 6.2 mi WSW 15.0 mph - N/A   Scattered Clouds
5:00 PM 68.0 °F 51.8 °F 56% 29.83 in 6.2 mi WSW 15.0 mph - N/A   Scattered Clouds
6:00 PM 66 °F 49 °F 44% 29.85 in 6 mi WSW 15.0 mph - -   Mostly Cloudy
6:00 PM 66.2 °F 50.0 °F 56% 29.83 in 6.2 mi WSW 15.0 mph - N/A   Scattered Clouds
7:00 PM 64.4 °F 51.8 °F 64% 29.83 in 6.2 mi WSW 9.2 mph - N/A   Scattered Clouds
8:00 PM 62.6 °F 51.8 °F 68% 29.83 in 6.2 mi SW 6.9 mph - N/A   Scattered Clouds
9:00 PM 62 °F 54 °F 67% 29.86 in 6 mi SW 5.8 mph - -   Mostly Cloudy
9:00 PM 62.6 °F 53.6 °F 72% 29.86 in 6.2 mi SW 5.8 mph - N/A   Scattered Clouds
9:45 PM 60.8 °F 55.4 °F 82% 29.86 in 3.7 mi SW 5.8 mph - N/A Thunderstorm Light Thunderstorm
10:00 PM 55.4 °F 50.0 °F 82% 29.86 in 3.1 mi West 16.1 mph - N/A Rain Light Rain Showers
10:30 PM 57.2 °F 53.6 °F 88% 29.86 in 5.0 mi West 6.9 mph - N/A   Mostly Cloudy
11:00 PM 57.2 °F 53.6 °F 88% 29.83 in 3.1 mi WSW 8.1 mph - N/A Rain Light Rain Showers